"Pseudo-MPEC" for P21IuLP

Created 2023 Sep 23 16:22:23 UT using Find_Orb

Click here for an explanation of pseudo-MPECs

 
 Astrometry: 
     P21IuLP* C2023 09 038kj'OF32d:*![d]\lOZ+)L@%IAstrometryvq5J/@redacted;TaF52
     P21IuLP  C2023 09 03ou(di2?JPW$fISFT6sNovJf1OOclickko)Re]'mpYAtcxx)here+F52
     P21IuLP  C2023 09 03PVu#+Dy/0d^:U.C-s[5@]+forS$pWXy3)im`explanationN8_8#F52
     P21IuLP  C2023 09 03PX^:@1uUQX:^6tTGS.ZKk$R,VkDYoOOM3iGEdVPvqi3kw4x+oIwMF51

Station data:
(F51) Pan-STARRS 1, Haleakala  (N20.707234 W156.255910)  US/Hawaii.
   Observers J. Bulger, T. Lowe, A. Schultz, M. Willman. Measurers K.
   Chambers, S. Chastel, T. de Boer, L. Denneau, J. Fairlamb, H. Flewelling,
   M. Huber, C.-C. Lin, E. Magnier, Y. Ramanjooloo, R. Wainscoat, R. Weryk.
   1.8-m Ritchey-Chrétien + CCD.
(F52) Pan-STARRS 2, Haleakala  (N20.707382 W156.255910)  US/Hawaii.
   Observers J. Bulger, T. Dukes, T. Lowe, A. Schultz, M. Willman. Measurers
   K. Chambers, S. Chastel, T. de Boer, L. Denneau, J. Fairlamb, H.
   Flewelling, M. Huber, C.-C. Lin, E. Magnier, Y. Ramanjooloo, R. Wainscoat,
   R. Weryk. 1.8-m Ritchey-Chrétien + CCD.

Orbital elements:  P21IuLP
   Perihelion 2023 Jun 27.89380 +/- 47.7 TT = 21:27:04 (JD 2460123.39380)
Epoch 2023 Sep  3.0 TT = JDT 2460190.5   Earth MOID: 0.0047   Ju: 0.3236
M   6.74586329 +/- 27               Ve: 0.0042   Me: 0.0099   Ma: 0.0564
n   0.10052519 +/- 0.201            Peri.  243.25297 +/- 80      AutoNEOCP
a   4.58092072 +/- 6.11             Node   316.92975 +/- 25
e   0.9258478 +/- 0.256             Incl.    3.61990 +/- 1.4
P   9.80                   H 21.44  G  0.15   U 11.7  SR
q 0.33968497 +/- 0.525    Q 8.82215646 +/- 53.9           (J2000 ecliptic)
From 4 observations 2023 Sept. 3 (4.0 hr); mean residual 0".05
Residuals in arcseconds: 
230903 F52  .03-  .06+    230903 F52  .08+  .01-    
230903 F52  .04-  .06-    230903 F51  .01-  .01+    

Ephemerides (geocentric):
Date (UTC) HH   RA             Dec           delta  r     elong  mag " sig PA
---- --------  ------------   ------------  ------ ------ -----  --- --------
2023 09 23 16  20 31 45.168   -16 59 58.27  0.9925 1.7782 126.0 23.9 7363 104
2023 09 23 17  20 31 47.321   -16 59 50.56  0.9935 1.7788 125.9 23.9 7394 104
2023 09 23 18  20 31 49.475   -16 59 42.85  0.9945 1.7794 125.9 23.9 7425 104
2023 09 23 19  20 31 51.629   -16 59 35.13  0.9954 1.7800 125.9 23.9 7456 104
2023 09 23 20  20 31 53.784   -16 59 27.41  0.9964 1.7806 125.8 23.9 7487 104
2023 09 23 21  20 31 55.939   -16 59 19.70  0.9974 1.7812 125.8 23.9 7518 104
2023 09 23 22  20 31 58.095   -16 59 11.97  0.9983 1.7818 125.8 23.9 7550 104
2023 09 23 23  20 32 00.251   -16 59 04.25  0.9993 1.7824 125.7 23.9 7581 104
2023 09 24 00  20 32 02.408   -16 58 56.53  1.0003 1.7830 125.7 23.9 7613 104
2023 09 24 01  20 32 04.565   -16 58 48.80  1.0013 1.7836 125.7 23.9 7644 104
2023 09 24 02  20 32 06.723   -16 58 41.07  1.0022 1.7842 125.6 23.9 7676 104
2023 09 24 03  20 32 08.882   -16 58 33.34  1.0032 1.7848 125.6 23.9 7708 104
2023 09 24 04  20 32 11.041   -16 58 25.60  1.0042 1.7854 125.6 23.9 7739 104
2023 09 24 05  20 32 13.200   -16 58 17.87  1.0051 1.7860 125.5 23.9 7771 104
2023 09 24 06  20 32 15.360   -16 58 10.13  1.0061 1.7866 125.5 23.9 7803 104
2023 09 24 07  20 32 17.521   -16 58 02.39  1.0071 1.7871 125.5 23.9 7835 104
2023 09 24 08  20 32 19.682   -16 57 54.64  1.0081 1.7877 125.5 23.9 7867 104
2023 09 24 09  20 32 21.844   -16 57 46.90  1.0090 1.7883 125.4 23.9 7900 104
2023 09 24 10  20 32 24.006   -16 57 39.15  1.0100 1.7889 125.4 23.9 7932 104
2023 09 24 11  20 32 26.169   -16 57 31.40  1.0110 1.7895 125.4 23.9 7964 104
2023 09 24 12  20 32 28.332   -16 57 23.65  1.0119 1.7901 125.3 24.0 7997 104
2023 09 24 13  20 32 30.496   -16 57 15.89  1.0129 1.7907 125.3 24.0 8029 104
2023 09 24 14  20 32 32.661   -16 57 08.14  1.0139 1.7913 125.3 24.0 8062 104
2023 09 24 15  20 32 34.826   -16 57 00.38  1.0149 1.7919 125.2 24.0 8095 104
2023 09 24 16  20 32 36.992   -16 56 52.62  1.0158 1.7925 125.2 24.0 8127 104
2023 09 24 17  20 32 39.158   -16 56 44.85  1.0168 1.7931 125.2 24.0 8160 104
2023 09 24 18  20 32 41.324   -16 56 37.09  1.0178 1.7937 125.1 24.0 8193 104
2023 09 24 19  20 32 43.492   -16 56 29.32  1.0188 1.7943 125.1 24.0 8226 104
2023 09 24 20  20 32 45.660   -16 56 21.55  1.0197 1.7949 125.1 24.0 8259 104
2023 09 24 21  20 32 47.828   -16 56 13.77  1.0207 1.7955 125.0 24.0 8292 104
2023 09 24 22  20 32 49.997   -16 56 06.00  1.0217 1.7961 125.0 24.0 8326 104
2023 09 24 23  20 32 52.166   -16 55 58.22  1.0227 1.7967 125.0 24.0 8359 104
2023 09 25 00  20 32 54.336   -16 55 50.44  1.0236 1.7973 124.9 24.0 8392 104
2023 09 25 01  20 32 56.507   -16 55 42.66  1.0246 1.7979 124.9 24.0 8426 104
2023 09 25 02  20 32 58.678   -16 55 34.87  1.0256 1.7985 124.9 24.0 8459 104
2023 09 25 03  20 33 00.850   -16 55 27.09  1.0266 1.7991 124.8 24.0 8493 104
2023 09 25 04  20 33 03.022   -16 55 19.30  1.0275 1.7997 124.8 24.0 8527 105
2023 09 25 05  20 33 05.195   -16 55 11.51  1.0285 1.8003 124.8 24.0 8561 105
2023 09 25 06  20 33 07.368   -16 55 03.71  1.0295 1.8009 124.8 24.0 8594 105
2023 09 25 07  20 33 09.542   -16 54 55.92  1.0305 1.8015 124.7 24.0 8628 105
2023 09 25 08  20 33 11.716   -16 54 48.12  1.0314 1.8021 124.7 24.0 8662 105
2023 09 25 09  20 33 13.891   -16 54 40.32  1.0324 1.8027 124.7 24.0 8697 105
2023 09 25 10  20 33 16.067   -16 54 32.51  1.0334 1.8033 124.6 24.0 8731 105
2023 09 25 11  20 33 18.243   -16 54 24.71  1.0344 1.8038 124.6 24.0 8765 105
2023 09 25 12  20 33 20.419   -16 54 16.90  1.0354 1.8044 124.6 24.0 8800 105
2023 09 25 13  20 33 22.596   -16 54 09.09  1.0363 1.8050 124.5 24.0 8834 105
2023 09 25 14  20 33 24.774   -16 54 01.27  1.0373 1.8056 124.5 24.0 8869 105
2023 09 25 15  20 33 26.952   -16 53 53.46  1.0383 1.8062 124.5 24.0 8903 105